Date,TemperatureHighF,TemperatureAvgF,TemperatureLowF,DewpointHighF,DewpointAvgF,DewpointLowF,HumidityHigh,HumidityAvg,HumidityLow,PressureMaxIn,PressureMinIn,WindSpeedMaxMPH,WindSpeedAvgMPH,GustSpeedMaxMPH,PrecipitationSumIn
2013-12-1,44.5,34.3,26.9,36.0,30.2,25.0,96,85,69,30.11,29.98,9,2,14,0.00
2013-12-2,39.8,32.6,24.6,32.0,27.0,21.0,95,81,58,29.99,29.88,7,2,9,0.00
2013-12-3,37.9,34.2,24.7,37.0,31.9,21.0,95,91,81,29.90,29.83,11,3,12,0.04
2013-12-4,57.3,46.1,36.0,54.0,44.3,35.0,98,93,88,29.89,29.61,11,3,15,0.01
2013-12-5,58.0,42.6,30.5,55.0,36.1,23.0,93,78,68,30.13,29.60,21,8,24,0.00
2013-12-6,30.4,26.5,21.1,24.0,18.9,14.0,77,73,67,30.41,30.11,12,6,17,0.00
2013-12-7,24.5,18.6,11.7,14.0,11.4,9.0,88,74,58,30.64,30.41,15,4,20,0.00
2013-12-8,28.6,19.9,10.6,28.0,16.2,8.0,96,86,73,30.62,30.00,15,4,16,0.00
2013-12-9,28.7,25.6,18.9,28.0,21.6,13.0,96,85,72,30.12,29.91,16,5,23,0.00
2013-12-10,21.3,16.2,9.0,14.0,9.2,2.0,85,74,53,30.21,29.98,20,5,28,0.00
2013-12-11,23.4,16.9,6.8,19.0,11.7,2.0,87,80,70,30.48,30.21,18,5,20,0.00
2013-12-12,18.1,12.4,1.1,13.0,5.3,-2.0,88,74,53,30.48,30.22,14,4,22,0.00
2013-12-13,28.6,23.5,18.3,22.0,18.3,13.0,84,80,75,30.27,30.18,10,3,16,0.01
2013-12-14,23.1,20.0,18.8,20.0,17.6,16.0,93,90,80,30.27,29.82,15,6,20,0.00
2013-12-15,25.1,20.3,14.8,22.0,16.6,9.0,92,86,68,30.05,29.82,20,7,26,0.00
2013-12-16,20.2,11.0,-3.4,14.0,7.5,-7.0,92,86,69,30.21,30.03,7,1,10,0.02
2013-12-17,25.8,20.9,14.1,23.0,18.6,12.0,95,91,86,30.03,29.92,11,3,20,0.00
2013-12-18,30.0,24.5,19.5,24.0,20.3,15.0,95,84,70,30.14,29.93,12,3,19,0.01
2013-12-19,40.5,32.0,20.8,34.0,27.8,16.0,93,84,77,30.00,29.89,7,1,9,0.07
2013-12-20,40.7,36.8,34.2,41.0,36.3,34.0,99,98,93,29.89,29.71,5,2,9,0.46
2013-12-21,37.0,33.9,32.6,37.0,33.5,32.0,99,98,97,29.85,29.62,14,4,19,0.74
2013-12-22,38.1,34.6,32.6,36.0,33.3,32.0,98,95,88,29.95,29.54,12,4,21,0.26
2013-12-23,34.3,28.8,20.3,32.0,24.0,15.0,97,82,70,30.31,29.96,16,6,21,0.00
2013-12-24,19.8,14.8,8.5,14.0,9.3,6.0,91,79,66,30.56,30.30,15,6,22,0.00
2013-12-25,24.6,19.4,7.6,23.0,16.6,6.0,94,89,80,30.53,30.14,11,3,17,0.00
2013-12-26,28.1,25.9,24.0,25.0,21.8,18.0,95,85,70,30.30,30.05,21,5,24,0.00
2013-12-27,39.0,32.8,25.3,33.0,28.8,23.0,91,85,77,30.32,30.09,9,2,18,0.05
2013-12-28,46.1,37.6,29.7,38.0,33.0,28.0,94,83,70,30.12,29.90,8,3,19,0.00
2013-12-29,42.7,33.6,23.6,34.0,29.2,19.0,93,84,70,29.98,29.68,15,6,21,0.00
2013-12-30,23.0,19.5,15.7,19.0,11.1,6.0,83,70,64,30.26,30.00,16,4,22,0.00
2013-12-31,20.4,16.7,14.3,16.0,11.9,9.0,90,81,69,30.35,30.08,13,6,23,0.00